EN

Hourly Weather Labedziow

Today, 30 July, Friday

Time Temperature Precipitation Wind Pressure Humidity
00:00 +19°C° 0 mm 1 mps 738 mmHg 69%
01:00 +19°C° 0 mm 1 mps 738 mmHg 69%
02:00 +19°C° 0 mm 1 mps 738 mmHg 71%
03:00 +18°C° 0 mm 1 mps 738 mmHg 73%
04:00 +17°C° 0 mm 2 mps 738 mmHg 75%
05:00 +19°C° 0 mm 2 mps 738 mmHg 72%
06:00 +20°C° 0 mm 2 mps 738 mmHg 69%
07:00 +22°C° 0 mm 3 mps 738 mmHg 65%
08:00 +24°C° 0 mm 3 mps 738 mmHg 60%
09:00 +26°C° 0 mm 4 mps 738 mmHg 54%
10:00 +27°C° 0 mm 4 mps 738 mmHg 49%
11:00 +28°C° 0 mm 4 mps 738 mmHg 46%
12:00 +29°C° 0 mm 4 mps 737 mmHg 44%
13:00 +29°C° 0 mm 5 mps 737 mmHg 41%
14:00 +29°C° 0 mm 4 mps 737 mmHg 41%
15:00 +30°C° 0 mm 4 mps 736 mmHg 41%
16:00 +30°C° 0 mm 3 mps 736 mmHg 42%
17:00 +28°C° 0 mm 2 mps 736 mmHg 47%
18:00 +26°C° 0 mm 1 mps 736 mmHg 53%
19:00 +25°C° 0 mm 1 mps 736 mmHg 59%
20:00 +24°C° 0 mm 1 mps 736 mmHg 60%
21:00 +23°C° 0 mm 1 mps 736 mmHg 61%
22:00 +22°C° 0 mm 1 mps 736 mmHg 63%
23:00 +19°C° 0 mm 0 mps 736 mmHg 63%

Tomorrow, 31 July, Saturday

Time Temperature Precipitation Wind Pressure Humidity
00:00 +19°C° 0 mm 0 mps 736 mmHg 63%
01:00 +19°C° 0 mm 0 mps 736 mmHg 63%
02:00 +18°C° 0 mm 0 mps 736 mmHg 64%
03:00 +18°C° 0 mm 0 mps 736 mmHg 65%
04:00 +18°C° 0 mm 0 mps 736 mmHg 66%
05:00 +19°C° 0.2 mm 0 mps 736 mmHg 65%
06:00 +22°C° 0.2 mm 1 mps 736 mmHg 65%
07:00 +23°C° 0.2 mm 1 mps 736 mmHg 64%
08:00 +25°C° 0.1 mm 1 mps 736 mmHg 61%
09:00 +26°C° 0.1 mm 1 mps 736 mmHg 59%
10:00 +27°C° 0.1 mm 1 mps 735 mmHg 56%
11:00 +25°C° 1.4 mm 2 mps 736 mmHg 68%
12:00 +22°C° 1.4 mm 3 mps 736 mmHg 81%
13:00 +20°C° 1.4 mm 4 mps 736 mmHg 93%
14:00 +20°C° 1.4 mm 4 mps 736 mmHg 91%
15:00 +20°C° 1.4 mm 3 mps 736 mmHg 88%
16:00 +20°C° 1.4 mm 3 mps 736 mmHg 85%
17:00 +20°C° 0 mm 3 mps 736 mmHg 87%
18:00 +20°C° 0 mm 2 mps 736 mmHg 88%
19:00 +20°C° 0 mm 2 mps 736 mmHg 89%
20:00 +19°C° 0 mm 2 mps 736 mmHg 91%
21:00 +18°C° 0 mm 2 mps 736 mmHg 93%
22:00 +18°C° 0 mm 2 mps 736 mmHg 94%
23:00 +17°C° 0 mm 2 mps 736 mmHg 93%

Day after tomorrow, 1 August, Sunday

Time Temperature Precipitation Wind Pressure Humidity
00:00 +17°C° 0 mm 2 mps 736 mmHg 92%
01:00 +17°C° 0 mm 2 mps 736 mmHg 91%
02:00 +17°C° 0 mm 2 mps 736 mmHg 89%
03:00 +18°C° 0 mm 1 mps 736 mmHg 87%
04:00 +18°C° 0 mm 1 mps 736 mmHg 85%
05:00 +19°C° 0 mm 1 mps 736 mmHg 80%
06:00 +20°C° 0 mm 1 mps 736 mmHg 74%
07:00 +22°C° 0 mm 1 mps 736 mmHg 69%
08:00 +23°C° 0 mm 1 mps 736 mmHg 65%
09:00 +24°C° 0 mm 2 mps 736 mmHg 61%
10:00 +25°C° 0 mm 2 mps 735 mmHg 56%
11:00 +26°C° 0.1 mm 2 mps 735 mmHg 56%
12:00 +26°C° 0.1 mm 2 mps 735 mmHg 56%
13:00 +27°C° 0.1 mm 2 mps 734 mmHg 56%
14:00 +23°C° 1.1 mm 4 mps 734 mmHg 66%
15:00 +21°C° 1.1 mm 6 mps 734 mmHg 76%
16:00 +17°C° 1.1 mm 7 mps 734 mmHg 86%
17:00 +17°C° 0.3 mm 6 mps 735 mmHg 87%
18:00 +17°C° 0.3 mm 4 mps 735 mmHg 87%
19:00 +16°C° 0.3 mm 3 mps 736 mmHg 88%
20:00 +16°C° 0 mm 2 mps 736 mmHg 90%
21:00 +15°C° 0 mm 2 mps 736 mmHg 91%
22:00 +14°C° 0 mm 1 mps 736 mmHg 93%
23:00 +15°C° 0.1 mm 1 mps 736 mmHg 92%

2 August, Monday

Time Temperature Precipitation Wind Pressure Humidity
00:00 +15°C° 0.1 mm 1 mps 736 mmHg 91%
01:00 +15°C° 0.1 mm 2 mps 735 mmHg 90%
02:00 +15°C° 0.1 mm 2 mps 736 mmHg 91%
03:00 +15°C° 0.1 mm 2 mps 736 mmHg 91%
04:00 +15°C° 0.1 mm 2 mps 736 mmHg 91%
05:00 +14°C° 0.7 mm 3 mps 736 mmHg 92%
06:00 +14°C° 0.7 mm 3 mps 737 mmHg 92%
07:00 +16°C° 0.7 mm 3 mps 737 mmHg 93%
08:00 +17°C° 0.5 mm 3 mps 737 mmHg 89%
09:00 +18°C° 0.5 mm 3 mps 737 mmHg 84%
10:00 +19°C° 0.5 mm 3 mps 737 mmHg 79%
11:00 +20°C° 0.5 mm 4 mps 737 mmHg 75%
12:00 +21°C° 0.5 mm 4 mps 737 mmHg 70%
13:00 +22°C° 0.5 mm 5 mps 738 mmHg 65%
14:00 +21°C° 0.4 mm 4 mps 738 mmHg 68%
15:00 +21°C° 0.4 mm 4 mps 738 mmHg 71%
16:00 +21°C° 0.4 mm 4 mps 738 mmHg 73%
17:00 +20°C° 0.2 mm 3 mps 738 mmHg 77%
18:00 +19°C° 0.2 mm 2 mps 738 mmHg 80%
19:00 +18°C° 0.2 mm 2 mps 738 mmHg 83%
20:00 +17°C° 0.1 mm 2 mps 739 mmHg 86%
21:00 +16°C° 0.1 mm 2 mps 739 mmHg 89%
22:00 +15°C° 0.1 mm 2 mps 739 mmHg 91%
23:00 +15°C° 0 mm 2 mps 740 mmHg 92%

3 August, Tuesday

Time Temperature Precipitation Wind Pressure Humidity
00:00 +15°C° 0 mm 2 mps 740 mmHg 93%
01:00 +14°C° 0 mm 2 mps 740 mmHg 93%
02:00 +14°C° 0 mm 2 mps 740 mmHg 92%
03:00 +14°C° 0 mm 1 mps 741 mmHg 92%
04:00 +13°C° 0 mm 1 mps 741 mmHg 91%
05:00 +15°C° 0 mm 1 mps 741 mmHg 85%
06:00 +16°C° 0 mm 1 mps 741 mmHg 80%
07:00 +17°C° 0 mm 2 mps 741 mmHg 75%
08:00 +19°C° 0 mm 2 mps 741 mmHg 67%
09:00 +20°C° 0 mm 2 mps 742 mmHg 60%
10:00 +23°C° 0 mm 2 mps 742 mmHg 52%
11:00 +23°C° 0 mm 2 mps 741 mmHg 52%
12:00 +24°C° 0 mm 2 mps 741 mmHg 51%
13:00 +24°C° 0 mm 2 mps 741 mmHg 51%
14:00 +24°C° 0 mm 1 mps 741 mmHg 52%
15:00 +24°C° 0 mm 1 mps 740 mmHg 53%
16:00 +24°C° 0 mm 1 mps 740 mmHg 54%
17:00 +23°C° 0.1 mm 1 mps 740 mmHg 60%
18:00 +21°C° 0.1 mm 1 mps 740 mmHg 65%
19:00 +19°C° 0.1 mm 2 mps 740 mmHg 71%
20:00 +18°C° 0.3 mm 2 mps 740 mmHg 75%
21:00 +17°C° 0.3 mm 2 mps 740 mmHg 79%
22:00 +16°C° 0.3 mm 2 mps 740 mmHg 83%
23:00 +16°C° 1 mm 2 mps 740 mmHg 86%

4 August, Wednesday

Time Temperature Precipitation Wind Pressure Humidity
00:00 +16°C° 1 mm 2 mps 740 mmHg 90%
01:00 +16°C° 1 mm 2 mps 740 mmHg 93%
02:00 +16°C° 2.4 mm 2 mps 740 mmHg 94%
03:00 +16°C° 2.4 mm 2 mps 740 mmHg 96%
04:00 +16°C° 2.4 mm 1 mps 739 mmHg 97%
05:00 +16°C° 0.5 mm 2 mps 740 mmHg 93%
06:00 +17°C° 0.5 mm 2 mps 740 mmHg 89%
07:00 +18°C° 0.5 mm 3 mps 740 mmHg 86%
08:00 +19°C° 0.1 mm 3 mps 740 mmHg 79%
09:00 +20°C° 0.1 mm 3 mps 740 mmHg 72%
10:00 +21°C° 0.1 mm 4 mps 740 mmHg 65%
11:00 +22°C° 0.1 mm 4 mps 740 mmHg 60%
12:00 +24°C° 0.1 mm 3 mps 740 mmHg 55%
13:00 +25°C° 0.1 mm 3 mps 739 mmHg 51%
14:00 +25°C° 0 mm 3 mps 739 mmHg 52%
15:00 +24°C° 0 mm 3 mps 739 mmHg 53%
16:00 +24°C° 0 mm 3 mps 739 mmHg 55%
17:00 +23°C° 0 mm 2 mps 739 mmHg 60%
18:00 +21°C° 0 mm 2 mps 739 mmHg 65%
19:00 +20°C° 0 mm 1 mps 739 mmHg 71%
20:00 +20°C° 0 mm 1 mps 739 mmHg 72%
21:00 +19°C° 0 mm 1 mps 739 mmHg 74%
22:00 +18°C° 0 mm 1 mps 739 mmHg 76%
23:00 +18°C° 0 mm 1 mps 739 mmHg 76%
Show more